EAG760 LGKR-LTBS

Flight info

Callsign EAG760
Flight time 1h 21m
Altitude 35000
Route PARNA UL53 KOR UN604 ATV UL607 KEA UL995 RDS UN136 SOTIV
Aircraft B738/M-SDE2E3FGHIRWXY/LB1

Departure

Time 2026-04-22 22:33
Airport Corfu Ioannis Kapodistrias International Airport (LGKR)

Arrival

Time 2026-04-22 23:55
Airport Dalaman International Airport (LTBS)
Time Latitude Longitude Altitude Speed Heading
2026-04-22 22:32 39.59278 19.91455 12 ft 0 kts 345°
2026-04-22 22:32 39.59574 19.91368 13 ft 86 kts 348°
2026-04-22 22:33 39.60418 19.91141 15 ft 159 kts 346°
2026-04-22 22:33 39.61607 19.90840 543 ft 187 kts 349°
2026-04-22 22:33 39.63001 19.90576 1167 ft 210 kts 348°
2026-04-22 22:33 39.64430 19.90115 2100 ft 216 kts 336°
2026-04-22 22:34 39.65580 19.88844 2796 ft 223 kts 301°
2026-04-22 22:34 39.66014 19.86924 3493 ft 226 kts 268°
2026-04-22 22:34 39.65757 19.84931 4342 ft 222 kts 256°
2026-04-22 22:34 39.65368 19.82995 5126 ft 223 kts 255°
2026-04-22 22:35 39.64952 19.81025 5813 ft 227 kts 255°
2026-04-22 22:35 39.64593 19.79033 6555 ft 228 kts 269°
2026-04-22 22:35 39.64922 19.77056 7124 ft 235 kts 298°
2026-04-22 22:35 39.65947 19.75357 7669 ft 244 kts 309°
2026-04-22 22:36 39.67044 19.73700 8518 ft 239 kts 308°
2026-04-22 22:36 39.68118 19.72045 9289 ft 241 kts 308°
2026-04-22 22:36 39.69191 19.70370 10034 ft 241 kts 308°
2026-04-22 22:36 39.70262 19.68691 10737 ft 242 kts 308°
2026-04-22 22:37 39.71427 19.67094 11428 ft 246 kts 318°
2026-04-22 22:37 39.72917 19.65958 12138 ft 252 kts 336°
2026-04-22 22:37 39.74681 19.65570 12806 ft 265 kts 356°
2026-04-22 22:37 39.76516 19.66128 13453 ft 281 kts 20°
2026-04-22 22:38 39.78097 19.67729 14038 ft 300 kts 46°
2026-04-22 22:38 39.79060 19.70158 14558 ft 315 kts 71°
2026-04-22 22:38 39.79246 19.73040 15046 ft 327 kts 97°
2026-04-22 22:38 39.78490 19.75834 15531 ft 331 kts 127°
2026-04-22 22:39 39.76851 19.77885 16070 ft 326 kts 153°
2026-04-22 22:39 39.74891 19.79358 16641 ft 327 kts 158°
2026-04-22 22:39 39.72868 19.80757 17182 ft 331 kts 159°
2026-04-22 22:39 39.70822 19.82187 17726 ft 335 kts 158°
2026-04-22 22:40 39.68767 19.83668 18263 ft 340 kts 158°
2026-04-22 22:40 39.66705 19.85191 18741 ft 343 kts 157°
2026-04-22 22:40 39.64628 19.86750 19244 ft 345 kts 156°
2026-04-22 22:40 39.62542 19.88323 19746 ft 348 kts 156°
2026-04-22 22:41 39.60470 19.89886 20225 ft 350 kts 156°
2026-04-22 22:41 39.58347 19.91540 20718 ft 356 kts 150°
2026-04-22 22:41 39.56374 19.93547 20850 ft 375 kts 143°
2026-04-22 22:41 39.54395 19.95857 20985 ft 391 kts 141°
2026-04-22 22:42 39.52360 19.98276 21097 ft 405 kts 141°
2026-04-22 22:42 39.50218 20.00751 21212 ft 419 kts 142°
2026-04-22 22:42 39.47979 20.03272 21316 ft 433 kts 143°
2026-04-22 22:42 39.45711 20.05941 21398 ft 450 kts 133°
2026-04-22 22:43 39.44045 20.09430 21500 ft 465 kts 111°
2026-04-22 22:43 39.43346 20.13527 21785 ft 468 kts 90°
2026-04-22 22:43 39.43697 20.17649 22548 ft 452 kts 69°
2026-04-22 22:43 39.44929 20.21260 23601 ft 427 kts 51°
2026-04-22 22:44 39.46749 20.24156 24461 ft 404 kts 35°
2026-04-22 22:44 39.48978 20.26220 24949 ft 393 kts 24°
2026-04-22 22:44 39.51161 20.28485 25210 ft 413 kts 41°
2026-04-22 22:44 39.52831 20.31595 25537 ft 429 kts 58°
2026-04-22 22:45 39.54067 20.35134 25944 ft 435 kts 65°
2026-04-22 22:45 39.54709 20.39006 26323 ft 444 kts 83°
2026-04-22 22:45 39.54707 20.43010 26838 ft 446 kts 94°
2026-04-22 22:45 39.54125 20.46956 27304 ft 447 kts 108°
2026-04-22 22:46 39.53018 20.50703 27792 ft 446 kts 113°
2026-04-22 22:46 39.51819 20.54353 28270 ft 445 kts 114°
2026-04-22 22:46 39.50574 20.58026 28689 ft 445 kts 115°
2026-04-22 22:46 39.49325 20.61698 29107 ft 445 kts 114°
2026-04-22 22:47 39.48085 20.65374 29480 ft 444 kts 114°
2026-04-22 22:47 39.46859 20.69043 29898 ft 443 kts 114°
2026-04-22 22:47 39.45644 20.72706 30262 ft 443 kts 114°
2026-04-22 22:47 39.44430 20.76388 30559 ft 443 kts 114°
2026-04-22 22:48 39.43234 20.80022 30885 ft 443 kts 114°
2026-04-22 22:48 39.42033 20.83678 31223 ft 441 kts 114°
2026-04-22 22:48 39.40830 20.87334 31552 ft 441 kts 114°
2026-04-22 22:48 39.39626 20.90987 31835 ft 442 kts 114°
2026-04-22 22:49 39.38422 20.94636 32158 ft 441 kts 114°
2026-04-22 22:49 39.37218 20.98279 32487 ft 441 kts 114°
2026-04-22 22:49 39.36011 21.01926 32787 ft 441 kts 114°
2026-04-22 22:49 39.34803 21.05570 33077 ft 441 kts 114°
2026-04-22 22:50 39.33594 21.09211 33388 ft 440 kts 114°
2026-04-22 22:50 39.32388 21.12842 33670 ft 440 kts 114°
2026-04-22 22:50 39.31180 21.16472 33902 ft 440 kts 114°
2026-04-22 22:50 39.29971 21.20100 34146 ft 439 kts 114°
2026-04-22 22:51 39.28762 21.23726 34358 ft 439 kts 114°
2026-04-22 22:51 39.27553 21.27345 34558 ft 440 kts 114°
2026-04-22 22:51 39.26355 21.30927 34737 ft 440 kts 114°
2026-04-22 22:51 39.25139 21.34557 34937 ft 440 kts 114°
2026-04-22 22:52 39.23920 21.38192 34990 ft 444 kts 114°
2026-04-22 22:52 39.21441 21.45571 35014 ft 453 kts 114°
2026-04-22 22:53 39.18904 21.53101 35014 ft 462 kts 114°
2026-04-22 22:53 39.16316 21.60764 35020 ft 469 kts 114°
2026-04-22 22:54 39.13711 21.68458 35019 ft 473 kts 114°
2026-04-22 22:54 39.11063 21.76258 35028 ft 476 kts 115°
2026-04-22 22:55 39.08415 21.84043 35001 ft 470 kts 115°
2026-04-22 22:55 39.04511 21.95469 35010 ft 464 kts 115°
2026-04-22 22:56 39.01916 22.03039 35020 ft 463 kts 115°
2026-04-22 22:56 38.99310 22.10621 35029 ft 462 kts 115°
2026-04-22 22:57 38.96703 22.18189 35038 ft 465 kts 115°
2026-04-22 22:57 38.94049 22.25870 35035 ft 474 kts 115°
2026-04-22 22:58 38.91356 22.33645 35037 ft 482 kts 115°
2026-04-22 22:58 38.88609 22.41555 35031 ft 490 kts 115°
2026-04-22 22:59 38.85821 22.49561 35013 ft 491 kts 115°
2026-04-22 22:59 38.83033 22.57548 35020 ft 490 kts 115°
2026-04-22 23:00 38.80238 22.65530 35018 ft 489 kts 115°
2026-04-22 23:00 38.77448 22.73479 35020 ft 488 kts 115°
2026-04-22 23:01 38.74666 22.81383 35004 ft 484 kts 115°
2026-04-22 23:01 38.71920 22.89161 35002 ft 480 kts 115°
2026-04-22 23:02 38.69174 22.96922 35015 ft 478 kts 115°
2026-04-22 23:02 38.66429 23.04654 35003 ft 476 kts 115°
2026-04-22 23:03 38.63685 23.12367 35011 ft 476 kts 115°
2026-04-22 23:03 38.60931 23.20088 35014 ft 478 kts 116°
2026-04-22 23:04 38.58159 23.27836 35004 ft 480 kts 116°
2026-04-22 23:04 38.55369 23.35617 35003 ft 482 kts 116°
2026-04-22 23:05 38.52562 23.43424 35001 ft 484 kts 116°
2026-04-22 23:05 38.49741 23.51250 34995 ft 486 kts 116°
2026-04-22 23:06 38.46901 23.59109 34997 ft 488 kts 116°
2026-04-22 23:06 38.44050 23.66978 34987 ft 489 kts 116°
2026-04-22 23:07 38.41206 23.74806 34982 ft 489 kts 116°
2026-04-22 23:07 38.38345 23.82662 34982 ft 488 kts 116°
2026-04-22 23:08 38.35484 23.90493 34980 ft 486 kts 116°
2026-04-22 23:08 38.32622 23.98311 34981 ft 485 kts 116°
2026-04-22 23:09 38.29787 24.06033 34982 ft 484 kts 116°
2026-04-22 23:09 38.26937 24.13773 34982 ft 482 kts 116°
2026-04-22 23:10 38.24087 24.21497 34968 ft 482 kts 117°
2026-04-22 23:10 38.21234 24.29209 34976 ft 480 kts 117°
2026-04-22 23:11 38.18870 24.35583 34978 ft 480 kts 117°
2026-04-22 23:11 38.16017 24.43258 34978 ft 479 kts 117°
2026-04-22 23:12 38.12700 24.52159 34984 ft 480 kts 117°
2026-04-22 23:12 38.10312 24.58551 34968 ft 479 kts 117°
2026-04-22 23:13 38.07446 24.66201 34970 ft 480 kts 117°
2026-04-22 23:13 38.04572 24.73854 34975 ft 480 kts 117°
2026-04-22 23:14 38.01692 24.81505 34971 ft 481 kts 117°
2026-04-22 23:14 37.98818 24.89123 34971 ft 481 kts 117°
2026-04-22 23:15 37.95924 24.96773 34967 ft 482 kts 117°
2026-04-22 23:15 37.93020 25.04429 34964 ft 482 kts 117°
2026-04-22 23:16 37.90112 25.12079 34964 ft 482 kts 117°
2026-04-22 23:16 37.87201 25.19717 34957 ft 481 kts 117°
2026-04-22 23:17 37.84286 25.27346 34956 ft 481 kts 117°
2026-04-22 23:17 37.81368 25.34964 34952 ft 480 kts 117°
2026-04-22 23:18 37.78454 25.42555 34950 ft 480 kts 117°
2026-04-22 23:18 37.75548 25.50104 34948 ft 479 kts 117°
2026-04-22 23:19 37.72624 25.57682 34944 ft 479 kts 118°
2026-04-22 23:19 37.69702 25.65236 34946 ft 478 kts 118°
2026-04-22 23:20 37.66799 25.72723 34940 ft 478 kts 118°
2026-04-22 23:20 37.63874 25.80247 34941 ft 477 kts 118°
2026-04-22 23:21 37.60945 25.87765 34937 ft 477 kts 118°
2026-04-22 23:21 37.58012 25.95274 34936 ft 477 kts 118°
2026-04-22 23:22 37.55093 26.02730 34956 ft 477 kts 118°
2026-04-22 23:22 37.52150 26.10230 34931 ft 477 kts 118°
2026-04-22 23:23 37.49200 26.17729 34935 ft 477 kts 118°
2026-04-22 23:23 37.46245 26.25222 34934 ft 479 kts 118°
2026-04-22 23:24 37.43248 26.32799 34933 ft 487 kts 118°
2026-04-22 23:24 37.40221 26.40439 34936 ft 494 kts 118°
2026-04-22 23:25 37.37123 26.48237 34937 ft 501 kts 118°
2026-04-22 23:25 37.33992 26.56103 34948 ft 504 kts 118°
2026-04-22 23:26 37.30838 26.64004 34921 ft 506 kts 118°
2026-04-22 23:26 37.27675 26.71910 34926 ft 506 kts 118°
2026-04-22 23:27 37.24529 26.79754 34923 ft 505 kts 118°
2026-04-22 23:27 37.21368 26.87614 34927 ft 503 kts 119°
2026-04-22 23:28 37.18213 26.95440 34929 ft 501 kts 119°
2026-04-22 23:28 37.15067 27.03224 34940 ft 499 kts 119°
2026-04-22 23:29 37.11945 27.10928 34926 ft 497 kts 119°
2026-04-22 23:29 37.08816 27.18632 34934 ft 496 kts 119°
2026-04-22 23:30 37.05679 27.26337 34938 ft 495 kts 119°
2026-04-22 23:30 37.02541 27.34026 34932 ft 496 kts 119°
2026-04-22 23:31 36.99400 27.41703 34939 ft 496 kts 119°
2026-04-22 23:31 36.96270 27.49337 34937 ft 496 kts 119°
2026-04-22 23:32 36.93111 27.57021 34927 ft 497 kts 119°
2026-04-22 23:32 36.89940 27.64717 34565 ft 504 kts 119°
2026-04-22 23:33 36.88325 27.68627 34000 ft 504 kts 119°
2026-04-22 23:33 36.86717 27.72518 33289 ft 504 kts 119°
2026-04-22 23:33 36.85104 27.76416 32626 ft 503 kts 119°
2026-04-22 23:33 36.83497 27.80297 31944 ft 503 kts 119°
2026-04-22 23:34 36.81887 27.84179 31258 ft 503 kts 119°
2026-04-22 23:34 36.80279 27.88052 30562 ft 503 kts 119°
2026-04-22 23:34 36.78670 27.91921 30009 ft 501 kts 119°
2026-04-22 23:34 36.77071 27.95764 29437 ft 496 kts 119°
2026-04-22 23:35 36.75492 27.99555 28913 ft 490 kts 119°
2026-04-22 23:35 36.73923 28.03318 28393 ft 485 kts 119°
2026-04-22 23:35 36.72395 28.06976 27903 ft 479 kts 119°
2026-04-22 23:35 36.70859 28.10649 27385 ft 476 kts 119°
2026-04-22 23:36 36.69334 28.14290 26885 ft 472 kts 119°
2026-04-22 23:36 36.67817 28.17910 26347 ft 469 kts 119°
2026-04-22 23:36 36.66312 28.21496 25851 ft 465 kts 119°
2026-04-22 23:36 36.64817 28.25058 25374 ft 462 kts 119°
2026-04-22 23:37 36.63329 28.28598 24904 ft 458 kts 119°
2026-04-22 23:37 36.61856 28.32097 24449 ft 454 kts 119°
2026-04-22 23:37 36.60635 28.35710 23962 ft 454 kts 104°
2026-04-22 23:37 36.60332 28.39583 23524 ft 449 kts 85°
2026-04-22 23:38 36.60935 28.43354 23002 ft 442 kts 67°
2026-04-22 23:38 36.62312 28.46666 22495 ft 432 kts 50°
2026-04-22 23:38 36.64337 28.49361 22008 ft 421 kts 34°
2026-04-22 23:38 36.66758 28.51344 21519 ft 410 kts 20°
2026-04-22 23:39 36.69401 28.52479 21058 ft 397 kts
2026-04-22 23:39 36.72091 28.53183 20618 ft 393 kts
2026-04-22 23:39 36.74760 28.53855 20161 ft 390 kts
2026-04-22 23:39 36.77411 28.54553 19714 ft 388 kts
2026-04-22 23:40 36.80046 28.55268 19267 ft 386 kts
2026-04-22 23:40 36.82662 28.55989 18827 ft 384 kts
2026-04-22 23:40 36.85272 28.56714 18370 ft 384 kts
2026-04-22 23:40 36.87877 28.57439 17879 ft 383 kts
2026-04-22 23:41 36.90477 28.58164 17415 ft 381 kts
2026-04-22 23:41 36.93020 28.58874 16955 ft 380 kts
2026-04-22 23:41 36.95596 28.59593 16504 ft 377 kts
2026-04-22 23:41 36.98147 28.60305 16074 ft 374 kts
2026-04-22 23:42 37.00672 28.61009 15640 ft 371 kts
2026-04-22 23:42 37.03195 28.61714 15211 ft 369 kts
2026-04-22 23:42 37.05687 28.62503 14754 ft 372 kts 16°
2026-04-22 23:42 37.07915 28.64218 14325 ft 382 kts 39°
2026-04-22 23:43 37.09556 28.66857 13872 ft 388 kts 60°
2026-04-22 23:43 37.10697 28.69878 13393 ft 388 kts 64°
2026-04-22 23:43 37.11812 28.72954 12930 ft 387 kts 63°
2026-04-22 23:43 37.12941 28.75996 12488 ft 384 kts 63°
2026-04-22 23:44 37.13953 28.79078 12056 ft 383 kts 75°
2026-04-22 23:44 37.14407 28.82330 11890 ft 371 kts 81°
2026-04-22 23:44 37.14782 28.85419 11950 ft 353 kts 81°
2026-04-22 23:44 37.15188 28.88486 11394 ft 358 kts 80°
2026-04-22 23:45 37.15589 28.91547 11162 ft 352 kts 85°
2026-04-22 23:45 37.15371 28.94538 10973 ft 341 kts 110°
2026-04-22 23:45 37.14360 28.97181 10620 ft 335 kts 129°
2026-04-22 23:45 37.12795 28.99282 10284 ft 328 kts 142°
2026-04-22 23:46 37.11093 29.01162 9937 ft 328 kts 142°
2026-04-22 23:46 37.09367 29.02954 9922 ft 312 kts 152°
2026-04-22 23:46 37.07454 29.03886 9870 ft 289 kts 176°
2026-04-22 23:46 37.05531 29.03839 9753 ft 267 kts 196°
2026-04-22 23:47 37.03826 29.03156 9652 ft 248 kts 210°
2026-04-22 23:47 37.02423 29.01993 9319 ft 238 kts 224°
2026-04-22 23:47 37.01242 29.00629 9216 ft 222 kts 226°
2026-04-22 23:47 37.00166 28.99331 9026 ft 210 kts 227°
2026-04-22 23:48 36.99122 28.98070 8577 ft 208 kts 226°
2026-04-22 23:48 36.98084 28.96812 8174 ft 208 kts 226°
2026-04-22 23:48 36.97051 28.95569 7859 ft 203 kts 226°
2026-04-22 23:48 36.96063 28.94388 7680 ft 191 kts 226°
2026-04-22 23:49 36.95125 28.93268 7466 ft 183 kts 225°
2026-04-22 23:49 36.94212 28.92156 7167 ft 183 kts 226°
2026-04-22 23:49 36.93318 28.91024 6851 ft 182 kts 227°
2026-04-22 23:49 36.92427 28.89893 6532 ft 182 kts 226°
2026-04-22 23:50 36.91538 28.88767 6232 ft 182 kts 226°
2026-04-22 23:50 36.90644 28.87636 5881 ft 183 kts 225°
2026-04-22 23:50 36.89752 28.86510 5555 ft 183 kts 225°
2026-04-22 23:50 36.88842 28.85403 5104 ft 182 kts 216°
2026-04-22 23:51 36.87682 28.84840 4687 ft 181 kts 193°
2026-04-22 23:51 36.86453 28.84438 4184 ft 182 kts 195°
2026-04-22 23:51 36.85250 28.84021 3801 ft 179 kts 195°
2026-04-22 23:51 36.84041 28.83603 3327 ft 182 kts 194°
2026-04-22 23:52 36.82822 28.83184 2894 ft 181 kts 194°
2026-04-22 23:52 36.81610 28.82768 2486 ft 181 kts 194°
2026-04-22 23:52 36.80425 28.82361 2116 ft 174 kts 194°
2026-04-22 23:52 36.79290 28.81972 1806 ft 164 kts 194°
2026-04-22 23:53 36.78211 28.81602 1504 ft 158 kts 194°
2026-04-22 23:53 36.77155 28.81242 1241 ft 158 kts 194°
2026-04-22 23:53 36.76079 28.80876 944 ft 162 kts 194°
2026-04-22 23:53 36.74987 28.80482 608 ft 163 kts 198°
2026-04-22 23:54 36.73917 28.80015 263 ft 159 kts 196°
2026-04-22 23:54 36.72861 28.79737 196 ft 157 kts 190°
2026-04-22 23:54 36.71805 28.79416 120 ft 155 kts 198°
2026-04-22 23:54 36.70770 28.79058 22 ft 142 kts 195°
2026-04-22 23:55 36.70196 28.78862 19 ft 26 kts 195°
2026-04-22 23:55 36.70143 28.78844 18 ft 17 kts 194°
2026-04-22 23:55 36.70052 28.78708 18 ft 20 kts 274°
2026-04-22 23:55 36.70190 28.78633 19 ft 29 kts 17°
2026-04-22 23:56 36.70409 28.78712 20 ft 39 kts 15°
2026-04-22 23:56 36.70656 28.78798 21 ft 35 kts 15°
2026-04-22 23:56 36.70877 28.78876 22 ft 31 kts 16°
2026-04-22 23:56 36.71078 28.78948 22 ft 29 kts 16°
2026-04-22 23:57 36.71267 28.79015 23 ft 27 kts 14°
2026-04-22 23:57 36.71343 28.78920 23 ft 13 kts 298°
2026-04-22 23:57 36.71348 28.78910 23 ft 0 kts 301°
2026-04-22 23:58 36.71353 28.78901 25 ft 11 kts 301°
2026-04-22 23:58 36.71469 28.78841 26 ft 22 kts 338°
2026-04-22 23:58 36.71516 28.78758 26 ft 9 kts 300°
2026-04-22 23:58 36.71562 28.78726 25 ft 0 kts 358°